Skip Page Navigation
NASA JPL Caltech
NASA Logo - Jet Propulsion Laboratory + View the NASA Portal
+ Center for Near-Earth Object Studies
JPL Home Earth Solar System Stars & Galaxies Technology
JPL Solar System Dynamics
BODIES ORBITS EPHEMERIDES TOOLS PHYSICAL DATA DISCOVERY FAQ SITE MAP
JPL Small-Body Database Browser
Search: [ help ]  
190532 (2000 QX215)
Classification: Main-belt Asteroid          SPK-ID: 2190532
Ephemeris | Orbit Diagram | Orbital Elements | Mission Design | Physical Parameters | Discovery Circumstances | Close-Approach Data ]

[ show orbit diagram ]
Orbital Elements at Epoch 2459200.5 (2020-Dec-17.0) TDB
Reference: JPL 17 (heliocentric ecliptic J2000)
 Element Value Uncertainty (1-sigma)   Units 
e .2600235192544899 1.026e-07  
a 2.534554258321318 8.5891e-09 au
q 1.875510540331155 2.6407e-07 au
i 7.548359679209967 6.8867e-06 deg
node 9.584020475637937 3.3491e-05 deg
peri 349.6798359592598 3.4837e-05 deg
M 6.129439458563202 9.9418e-06 deg
tp 2459175.406047297165
(2020-Nov-21.90604730)
4.0616e-05 TDB
period 1473.841618649097
4.04
7.4918e-06
2.051e-08
d
yr
n .2442596242667995 1.2416e-09 deg/d
Q 3.19359797631148 1.0822e-08 au
  Orbit Determination Parameters
   # obs. used (total)      488  
   data-arc span      8879 days (24.31 yr)  
   first obs. used      1996-09-21  
   last obs. used      2021-01-12  
   planetary ephem.      DE441  
   SB-pert. ephem.      SB441-N16  
   condition code      0  
   norm. resid. RMS      .55373  
   source      ORB  
   producer      Otto Matic  
   solution date      2021-Apr-13 22:08:04  

Additional Information
 Earth MOID = .871288 au 
 Jupiter MOID = 2.26025 au 
 T_jup = 3.389 
[ show covariance matrix ]

Ephemeris | Orbit Diagram | Orbital Elements | Mission Design | Physical Parameters | Discovery Circumstances | Close-Approach Data ]

Physical Parameter Table
Parameter Symbol Value Units Sigma Reference Notes
absolute magnitude H 16.50   n/a E2021B55  

190532 (2000 QX215)          Discovered 2000-Aug-31 by LINEAR at Socorro
Reference: 20080917/Numbers.arcLast Updated: 2008-09-19

[ show close-approach data ]
Alternate Designations
 2000 QX215 = 1996 SA8 
Ephemeris | Orbit Diagram | Orbital Elements | Mission Design | Physical Parameters | Discovery Circumstances | Close-Approach Data ]
ABOUT SSD CREDITS/AWARDS PRIVACY/COPYRIGHT GLOSSARY LINKS
FirstGov 2021-Apr-20 21:04 UT
(server date/time)  
NASA Home Page
Site Manager:   Ryan S. Park
Webmaster  Alan B. Chamberlin